When you browse on this site, cookies collect data to enhance your experience and personalize the content and advertising you see.
Visit our Privacy Policy to learn more. By continuing to use the site, you agree to this use of cookies and data.
  • En España
  • Lista de países
  • Para 7 días
  • Temperatura del agua
  • El tiempo en el mapa
  • Informadores
  • user-avatar
    Iniciar sesión

    Tiempo cada hora Manchester

    Hoy, 29 Enero, Miércoles

    Tiempo Temperatura Precipitaciones Viento Presión Humedad
    00:00 +2°C° 0 mm 7 mps 744 mmHg 78%
    01:00 +2°C° 0.2 mm 7 mps 744 mmHg 77%
    02:00 +2°C° 0.2 mm 7 mps 745 mmHg 76%
    03:00 +2°C° 0.2 mm 6 mps 745 mmHg 75%
    04:00 +2°C° 0.1 mm 6 mps 746 mmHg 76%
    05:00 +2°C° 0.1 mm 6 mps 746 mmHg 76%
    06:00 +2°C° 0.1 mm 6 mps 747 mmHg 77%
    07:00 +2°C° 0.1 mm 6 mps 747 mmHg 78%
    08:00 +2°C° 0.1 mm 6 mps 747 mmHg 79%
    09:00 +2°C° 0.1 mm 6 mps 748 mmHg 80%
    10:00 +3°C° 0 mm 6 mps 748 mmHg 78%
    11:00 +4°C° 0 mm 6 mps 748 mmHg 77%
    12:00 +4°C° 0 mm 6 mps 749 mmHg 75%
    13:00 +5°C° 0.1 mm 7 mps 748 mmHg 76%
    14:00 +5°C° 0.1 mm 7 mps 748 mmHg 77%
    15:00 +5°C° 0.1 mm 7 mps 747 mmHg 78%
    16:00 +5°C° 0.2 mm 7 mps 747 mmHg 79%
    17:00 +5°C° 0.2 mm 8 mps 747 mmHg 79%
    18:00 +6°C° 0.2 mm 8 mps 747 mmHg 80%
    19:00 +5°C° 0 mm 8 mps 747 mmHg 81%
    20:00 +5°C° 0 mm 7 mps 747 mmHg 81%
    21:00 +5°C° 0 mm 7 mps 747 mmHg 82%
    22:00 +5°C° 0 mm 6 mps 747 mmHg 83%
    23:00 +5°C° 0 mm 6 mps 747 mmHg 84%

    Mañana, 30 Enero, Jueves

    Tiempo Temperatura Precipitaciones Viento Presión Humedad
    00:00 +5°C° 0 mm 5 mps 747 mmHg 86%
    01:00 +5°C° 0 mm 4 mps 747 mmHg 87%
    02:00 +5°C° 0 mm 4 mps 747 mmHg 89%
    03:00 +5°C° 0 mm 3 mps 747 mmHg 90%
    04:00 +4°C° 0 mm 4 mps 747 mmHg 91%
    05:00 +4°C° 0 mm 4 mps 746 mmHg 92%
    06:00 +4°C° 0 mm 4 mps 746 mmHg 93%
    07:00 +4°C° 0 mm 4 mps 746 mmHg 94%
    08:00 +4°C° 0 mm 4 mps 745 mmHg 94%
    09:00 +4°C° 0 mm 4 mps 745 mmHg 95%
    10:00 +5°C° 0 mm 4 mps 744 mmHg 93%
    11:00 +7°C° 0 mm 5 mps 744 mmHg 90%
    12:00 +8°C° 0 mm 6 mps 743 mmHg 88%
    13:00 +9°C° 0 mm 6 mps 743 mmHg 87%
    14:00 +9°C° 0 mm 7 mps 742 mmHg 85%
    15:00 +10°C° 0 mm 8 mps 742 mmHg 83%
    16:00 +10°C° 0 mm 9 mps 742 mmHg 84%
    17:00 +8°C° 0 mm 9 mps 742 mmHg 85%
    18:00 +8°C° 0 mm 9 mps 743 mmHg 85%
    19:00 +7°C° 0 mm 8 mps 743 mmHg 84%
    20:00 +8°C° 0 mm 7 mps 744 mmHg 84%
    21:00 +7°C° 0 mm 6 mps 744 mmHg 83%
    22:00 +7°C° 0 mm 6 mps 745 mmHg 85%
    23:00 +6°C° 0 mm 5 mps 746 mmHg 86%

    Pasado mañana, 31 Enero, Viernes

    Tiempo Temperatura Precipitaciones Viento Presión Humedad
    00:00 +6°C° 0 mm 4 mps 747 mmHg 88%
    01:00 +6°C° 0 mm 4 mps 747 mmHg 89%
    02:00 +5°C° 0 mm 3 mps 747 mmHg 89%
    03:00 +5°C° 0 mm 3 mps 747 mmHg 90%
    04:00 +5°C° 0 mm 4 mps 747 mmHg 91%
    05:00 +5°C° 0 mm 4 mps 746 mmHg 91%
    06:00 +6°C° 0 mm 5 mps 746 mmHg 92%
    07:00 +6°C° 0 mm 5 mps 746 mmHg 91%
    08:00 +7°C° 0 mm 6 mps 746 mmHg 90%
    09:00 +8°C° 0 mm 7 mps 746 mmHg 90%
    10:00 +9°C° 0.4 mm 6 mps 745 mmHg 89%
    11:00 +9°C° 0.4 mm 6 mps 745 mmHg 89%
    12:00 +9°C° 0.4 mm 6 mps 745 mmHg 89%
    13:00 +10°C° 0 mm 6 mps 744 mmHg 88%
    14:00 +10°C° 0 mm 6 mps 744 mmHg 88%
    15:00 +11°C° 0 mm 6 mps 744 mmHg 88%
    16:00 +10°C° 0 mm 6 mps 744 mmHg 89%
    17:00 +10°C° 0 mm 6 mps 744 mmHg 90%
    18:00 +10°C° 0 mm 6 mps 743 mmHg 91%
    19:00 +9°C° 0 mm 6 mps 743 mmHg 89%
    20:00 +9°C° 0 mm 6 mps 743 mmHg 87%
    21:00 +9°C° 0 mm 6 mps 743 mmHg 85%
    22:00 +9°C° 0 mm 6 mps 743 mmHg 86%
    23:00 +9°C° 0 mm 6 mps 742 mmHg 86%

    1 Febrero, Sábado

    Tiempo Temperatura Precipitaciones Viento Presión Humedad
    00:00 +9°C° 0 mm 6 mps 742 mmHg 86%
    01:00 +9°C° 0.1 mm 6 mps 742 mmHg 86%
    02:00 +8°C° 0.1 mm 6 mps 742 mmHg 86%
    03:00 +8°C° 0.1 mm 6 mps 742 mmHg 86%
    04:00 +8°C° 0.3 mm 6 mps 741 mmHg 84%
    05:00 +7°C° 0.3 mm 6 mps 741 mmHg 82%
    06:00 +7°C° 0.3 mm 6 mps 741 mmHg 80%
    07:00 +5°C° 0.1 mm 7 mps 741 mmHg 78%
    08:00 +5°C° 0.1 mm 8 mps 742 mmHg 76%
    09:00 +5°C° 0.1 mm 9 mps 743 mmHg 74%
    10:00 +5°C° 0.1 mm 9 mps 743 mmHg 71%
    11:00 +5°C° 0.1 mm 10 mps 744 mmHg 68%
    12:00 +6°C° 0.1 mm 11 mps 745 mmHg 65%
    13:00 +6°C° 0.1 mm 11 mps 745 mmHg 67%
    14:00 +4°C° 0.1 mm 11 mps 745 mmHg 69%
    15:00 +4°C° 0.1 mm 11 mps 746 mmHg 70%
    16:00 +4°C° 0.3 mm 11 mps 747 mmHg 72%
    17:00 +4°C° 0.3 mm 11 mps 748 mmHg 73%
    18:00 +6°C° 0.3 mm 10 mps 749 mmHg 74%
    19:00 +5°C° 0 mm 9 mps 750 mmHg 75%
    20:00 +5°C° 0 mm 8 mps 751 mmHg 76%
    21:00 +4°C° 0 mm 7 mps 751 mmHg 77%
    22:00 +4°C° 0 mm 6 mps 752 mmHg 77%
    23:00 +5°C° 0 mm 5 mps 752 mmHg 77%

    2 Febrero, Domingo

    Tiempo Temperatura Precipitaciones Viento Presión Humedad
    00:00 +4°C° 0 mm 4 mps 752 mmHg 77%
    01:00 +4°C° 1 mm 3 mps 752 mmHg 82%
    02:00 +3°C° 1 mm 3 mps 751 mmHg 87%
    03:00 +4°C° 1 mm 2 mps 751 mmHg 92%
    04:00 +3°C° 1.9 mm 3 mps 749 mmHg 92%
    05:00 +3°C° 1.9 mm 4 mps 748 mmHg 92%
    06:00 +2°C° 1.9 mm 5 mps 747 mmHg 93%
    07:00 +4°C° 0.1 mm 4 mps 747 mmHg 94%
    08:00 +5°C° 0.1 mm 3 mps 747 mmHg 95%
    09:00 +7°C° 0.1 mm 3 mps 747 mmHg 96%
    10:00 +7°C° 0 mm 4 mps 747 mmHg 91%
    11:00 +8°C° 0 mm 5 mps 748 mmHg 86%
    12:00 +10°C° 0 mm 6 mps 749 mmHg 81%
    13:00 +10°C° 0.1 mm 6 mps 749 mmHg 79%
    14:00 +10°C° 0.1 mm 6 mps 750 mmHg 77%
    15:00 +10°C° 0.1 mm 5 mps 750 mmHg 75%
    16:00 +9°C° 0 mm 5 mps 751 mmHg 77%
    17:00 +8°C° 0 mm 5 mps 751 mmHg 79%
    18:00 +8°C° 0 mm 5 mps 752 mmHg 81%
    19:00 +8°C° 0 mm 5 mps 752 mmHg 83%
    20:00 +7°C° 0 mm 5 mps 753 mmHg 85%
    21:00 +7°C° 0 mm 4 mps 753 mmHg 86%
    22:00 +7°C° 0 mm 4 mps 753 mmHg 87%
    23:00 +7°C° 0 mm 4 mps 753 mmHg 89%

    3 Febrero, Lunes

    Tiempo Temperatura Precipitaciones Viento Presión Humedad
    00:00 +7°C° 0 mm 4 mps 753 mmHg 90%
    01:00 +7°C° 0.5 mm 3 mps 752 mmHg 91%
    02:00 +7°C° 0.5 mm 3 mps 752 mmHg 91%
    03:00 +7°C° 0.5 mm 2 mps 751 mmHg 91%
    04:00 +7°C° 1.6 mm 3 mps 750 mmHg 91%
    05:00 +6°C° 1.6 mm 4 mps 748 mmHg 91%
    06:00 +6°C° 1.6 mm 5 mps 747 mmHg 91%
    07:00 +7°C° 0.7 mm 6 mps 745 mmHg 92%
    08:00 +8°C° 0.7 mm 6 mps 744 mmHg 94%
    09:00 +9°C° 0.7 mm 6 mps 742 mmHg 95%
    10:00 +9°C° 0.2 mm 7 mps 742 mmHg 87%
    11:00 +10°C° 0.2 mm 8 mps 742 mmHg 80%
    12:00 +9°C° 0.2 mm 10 mps 741 mmHg 72%
    13:00 +9°C° 0.1 mm 10 mps 742 mmHg 71%
    14:00 +8°C° 0.1 mm 11 mps 742 mmHg 69%
    15:00 +8°C° 0.1 mm 11 mps 742 mmHg 68%
    16:00 +7°C° 0.1 mm 10 mps 742 mmHg 70%
    17:00 +6°C° 0.1 mm 10 mps 742 mmHg 71%
    18:00 +5°C° 0.1 mm 9 mps 742 mmHg 73%
    19:00 +5°C° 0.3 mm 10 mps 743 mmHg 73%
    20:00 +5°C° 0.3 mm 10 mps 743 mmHg 72%
    21:00 +4°C° 0.3 mm 11 mps 744 mmHg 71%
    22:00 +4°C° 0.1 mm 11 mps 745 mmHg 72%
    23:00 +4°C° 0.1 mm 11 mps 746 mmHg 73%
    Mostrar más